Location: Newark
(30.0333°N, 31.2167°E)
Time: 04:57:19
(UTC+00:00)

Tiros 1 despin weight - Pass Details

Date: 24 January 2020
Orbit: 594 x 642 km, 48.2° (Epoch: 16 February)

Event Time Altitude Azimuth Distance (km) Brightness Sun altitude
Rises 07:41:38 0° 206° (SSW) 2,825 ? 29.5°
Reaches altitude 10° 07:44:03 10° 197° (SSW) 1,932 ? 29.8°
Maximum altitude 07:48:03 34° 132° (SE) 1,006 ? 30.4°
Drops below altitude 10° 07:52:07 10° 68° (ENE) 1,966 ? 30.9°
Sets 07:54:36 0° 59° (ENE) 2,882 ? 31.3°
